{"data":{"norad_id":44065,"epoch":"2026-09-19T13:51:13.947264Z","epoch_age_seconds":138066,"freshness":"FRESH","line1":"1 44065U 19009D   26262.57724476  .00000060  00000+0  00000+0 0  9992","line2":"2 44065   6.7960  69.6645 0005179 137.6785 244.0764  0.99334762 27384","mean_motion":0.99334762,"eccentricity":0.0005179,"inclination_deg":6.796,"raan_deg":69.6645,"arg_perigee_deg":137.6785,"mean_anomaly_deg":244.0764,"bstar":0,"rev_number":2738,"period_min":1449.6435799584,"perigee_km":36029.365031796,"apogee_km":36073.313483303,"semimajor_km":42429.47625755,"source":"CELESTRAK","updated_at":"2026-09-20T09:00:14.451445Z"}}